FW2617 Weather Reports


Display with metric or nautical units.
time (UTC)temp
F
wind
direction
speed
MPH
gust
MPH
rain 1hr
in
rain 24hr
in
rain mn
in
humidity
%
barometer
mb
20260902155404 88 66 1.0 3.0 0.00 0.00 0.00 62 1012.6
20260902154504 87 40 1.0 5.0 0.00 0.00 0.00 63 1012.7
20260902153605 86 148 1.0 4.0 0.00 0.00 0.00 64 1012.6
20260902152705 86 62 1.0 4.0 0.00 0.00 0.00 65 1012.6
20260902151825 85 41 1.0 5.0 0.00 0.00 0.00 66 1012.7
20260902150904 84 53 3.0 5.0 0.00 0.00 0.00 67 1012.6
20260902150025 84 60 2.0 5.0 0.00 0.00 0.00 70 1012.6
20260902145404 84 58 1.0 4.0 0.00 0.00 0.00 70 1012.7
20260902144504 83 112 2.0 4.0 0.00 0.00 0.00 71 1012.6
20260902143604 83 143 1.0 5.0 0.00 0.00 0.00 71 1012.7
20260902142705 82 153 1.0 5.0 0.00 0.00 0.00 72 1012.7
20260902141804 82 148 1.0 4.0 0.00 0.00 0.00 73 1012.7
20260902140904 82 152 1.0 4.0 0.00 0.00 0.00 74 1012.7
20260902140025 81 154 1.0 5.0 0.00 0.00 0.00 74 1012.5
20260902135404 81 152 1.0 5.0 0.00 0.00 0.00 75 1012.7
20260902134504 80 87 0.0 3.0 0.00 0.00 0.00 77 1012.5
20260902133604 80 135 1.0 5.0 0.00 0.00 0.00 77 1012.6
20260902132705 79 135 2.0 6.0 0.00 0.00 0.00 77 1012.7
20260902131804 78 132 1.0 4.0 0.00 0.00 0.00 79 1012.7
20260902130925 77 0 0.0 0.0 0.00 0.00 0.00 80 1012.6
20260902130025 77 0 0.0 0.0 0.00 0.00 0.00 80 1012.4
20260902125425 76 0 0.0 0.0 0.00 0.00 0.00 80 1012.3
20260902124504 76 0 0.0 0.0 0.00 0.00 0.00 80 1012.1
20260902123625 76 0 0.0 0.0 0.00 0.00 0.00 79 1012.1
20260902122725 76 0 0.0 0.0 0.00 0.00 0.00 80 1012.0
20260902121825 76 0 0.0 0.0 0.00 0.00 0.00 80 1012.0
20260902120905 76 0 0.0 0.0 0.00 0.00 0.00 80 1012.0
20260902120025 76 0 0.0 0.0 0.00 0.00 0.00 79 1012.0
20260902115404 76 0 0.0 0.0 0.00 0.00 0.00 79 1012.0
20260902114504 77 0 0.0 0.0 0.00 0.00 0.00 78 1012.1
20260902113604 77 0 0.0 0.0 0.00 0.00 0.00 77 1012.1
20260902112704 77 0 0.0 0.0 0.00 0.00 0.00 76 1012.0
20260902111804 77 0 0.0 0.0 0.00 0.00 0.00 77 1011.9
20260902110904 77 0 0.0 0.0 0.00 0.00 0.00 77 1011.9
20260902110007 77 0 0.0 0.0 0.00 0.00 0.00 77 1012.0
20260902105404 77 0 0.0 0.0 0.00 0.00 0.00 77 1012.0
20260902104504 77 0 0.0 0.0 0.00 0.00 0.00 77 1012.1
20260902103604 78 0 0.0 0.0 0.00 0.00 0.00 77 1012.1
20260902102704 78 0 0.0 0.0 0.00 0.00 0.00 76 1012.0
20260902101804 78 0 0.0 0.0 0.00 0.00 0.00 75 1011.9
20260902100904 79 0 0.0 0.0 0.00 0.00 0.00 75 1011.8
20260902100004 79 0 0.0 0.0 0.00 0.00 0.00 73 1011.8
20260902095404 79 0 0.0 0.0 0.00 0.00 0.00 73 1011.9
20260902094525 79 0 0.0 0.0 0.00 0.00 0.00 72 1011.9
20260902093604 80 0 0.0 0.0 0.00 0.00 0.00 71 1011.8
20260902092704 80 0 0.0 0.0 0.00 0.00 0.00 72 1011.8
20260902091804 80 0 0.0 0.0 0.00 0.00 0.00 72 1011.8
20260902090905 80 0 0.0 0.0 0.00 0.00 0.00 72 1011.9
20260902090005 80 0 0.0 0.0 0.00 0.00 0.00 71 1011.9
20260902085425 80 0 0.0 0.0 0.00 0.00 0.00 71 1011.9
20260902084504 81 0 0.0 0.0 0.00 0.00 0.00 71 1011.8
20260902083604 81 0 0.0 0.0 0.00 0.00 0.00 70 1011.9
20260902082725 81 0 0.0 0.0 0.00 0.00 0.00 70 1012.0
20260902081804 81 159 0.0 3.0 0.00 0.00 0.00 69 1011.9
20260902080904 82 151 2.0 5.0 0.00 0.00 0.00 69 1012.0
20260902080004 82 155 1.0 5.0 0.00 0.00 0.00 69 1012.1
20260902075404 82 156 1.0 4.0 0.00 0.00 0.00 68 1012.0
20260902074504 82 158 1.0 5.0 0.00 0.00 0.00 68 1012.0
20260902073604 82 166 2.0 5.0 0.00 0.00 0.00 68 1012.2
20260902072704 82 165 2.0 5.0 0.00 0.00 0.00 67 1012.1
20260902071825 83 160 2.0 5.0 0.00 0.00 0.00 67 1012.2
20260902070904 83 163 2.0 5.0 0.00 0.00 0.00 67 1012.1
20260902070006 83 160 2.0 7.0 0.00 0.00 0.00 67 1012.2
20260902065404 83 164 3.0 7.0 0.00 0.00 0.00 67 1012.2
20260902064504 83 161 3.0 7.0 0.00 0.00 0.00 67 1012.2
20260902063604 83 159 3.0 7.0 0.00 0.00 0.00 66 1012.2
20260902062704 83 164 2.0 6.0 0.00 0.00 0.00 66 1012.1
20260902061804 83 160 2.0 7.0 0.00 0.00 0.00 66 1012.1
20260902060904 83 163 3.0 7.0 0.00 0.00 0.00 66 1012.0
20260902060004 83 160 3.0 8.0 0.00 0.00 0.00 66 1012.0
20260902055404 83 161 3.0 8.0 0.00 0.00 0.00 66 1011.9
20260902054504 84 161 3.0 9.0 0.00 0.00 0.00 66 1011.8
20260902053604 84 158 3.0 8.0 0.00 0.00 0.00 66 1011.8
20260902052725 84 154 2.0 6.0 0.00 0.00 0.00 65 1011.7
20260902051804 84 158 2.0 7.0 0.00 0.00 0.00 65 1011.7
20260902050925 84 157 2.0 5.0 0.00 0.00 0.00 64 1011.7
20260902050025 85 156 3.0 6.0 0.00 0.00 0.00 64 1011.7
20260902045404 85 155 3.0 8.0 0.00 0.00 0.00 63 1011.7
20260902044525 85 151 4.0 9.0 0.00 0.00 0.00 63 1011.7
20260902043625 85 148 4.0 10.0 0.00 0.00 0.00 62 1011.7
20260902042704 86 144 5.0 10.0 0.00 0.00 0.00 61 1011.6
20260902041825 86 145 3.0 12.0 0.00 0.00 0.00 60 1011.6
20260902040904 86 138 3.0 10.0 0.00 0.00 0.00 58 1011.5
20260902040004 87 137 3.0 8.0 0.00 0.00 0.00 57 1011.4
20260902035404 87 138 3.0 8.0 0.00 0.00 0.00 57 1011.3
20260902034504 88 139 1.0 4.0 0.00 0.00 0.00 56 1011.4
20260902033604 88 159 1.0 4.0 0.00 0.00 0.00 55 1011.1
20260902032704 88 152 0.0 4.0 0.00 0.00 0.00 55 1011.0
20260902031804 88 151 1.0 3.0 0.00 0.00 0.00 54 1011.0
20260902030904 88 151 0.0 3.0 0.00 0.00 0.00 54 1010.9
20260902030004 89 154 1.0 4.0 0.00 0.00 0.00 53 1010.8
20260902025404 89 151 1.0 4.0 0.00 0.00 0.00 53 1010.7
20260902024504 89 147 0.0 3.0 0.00 0.00 0.00 53 1010.6
20260902023625 89 138 1.0 3.0 0.00 0.00 0.00 52 1010.5
20260902022725 90 113 1.0 3.0 0.00 0.00 0.00 51 1010.3
20260902021804 90 92 0.0 3.0 0.00 0.00 0.00 51 1010.1
20260902020904 90 81 1.0 4.0 0.00 0.00 0.00 50 1010.1
20260902020004 91 98 0.0 4.0 0.00 0.00 0.00 50 1010.0
20260902015404 91 105 0.0 1.0 0.00 0.00 0.00 49 1009.9
20260902014504 92 0 0.0 0.0 0.00 0.00 0.00 48 1009.8
20260902013603 92 114 0.0 2.0 0.00 0.00 0.00 48 1009.7
20260902012704 92 112 0.0 2.0 0.00 0.00 0.00 48 1009.7
20260902011804 93 108 0.0 2.0 0.00 0.00 0.00 47 1009.6
20260902010925 93 102 1.0 3.0 0.00 0.00 0.00 47 1009.5
20260902010004 94 91 1.0 3.0 0.00 0.00 0.00 46 1009.4
20260902005404 94 85 1.0 3.0 0.00 0.00 0.00 45 1009.4
20260902004504 95 85 1.0 3.0 0.00 0.00 0.00 45 1009.4
20260902003604 95 87 1.0 4.0 0.00 0.00 0.00 44 1009.4
20260902002704 96 88 1.0 4.0 0.00 0.00 0.00 43 1009.4
20260902001804 96 79 1.0 5.0 0.00 0.00 0.00 42 1009.4
20260902000904 97 82 2.0 4.0 0.00 0.00 0.00 42 1009.6
20260902000025 97 75 2.0 6.0 0.00 0.00 0.00 41 1009.5
20260901235404 98 67 4.0 10.0 0.00 0.00 0.00 40 1009.5
20260901234504 99 70 3.0 11.0 0.00 0.00 0.00 39 1009.6
20260901233604 99 77 3.0 8.0 0.00 0.00 0.00 39 1009.6
20260901232704 100 80 2.0 6.0 0.00 0.00 0.00 39 1009.7
20260901231804 100 70 4.0 14.0 0.00 0.00 0.00 38 1009.6
20260901230904 101 69 3.0 8.0 0.00 0.00 0.00 38 1009.6
20260901230004 101 130 3.0 8.0 0.00 0.00 0.00 38 1009.7
20260901225404 101 125 2.0 6.0 0.00 0.00 0.00 38 1009.7
20260901224504 100 126 1.0 4.0 0.00 0.00 0.00 39 1009.7
20260901223604 98 84 1.0 4.0 0.00 0.00 0.00 41 1009.7
20260901222704 98 100 1.0 3.0 0.00 0.00 0.00 41 1009.8
20260901221804 98 139 1.0 5.0 0.00 0.00 0.00 41 1009.8
20260901220905 98 147 1.0 4.0 0.00 0.00 0.00 41 1009.9
20260901220004 98 120 1.0 6.0 0.00 0.00 0.00 40 1009.9
20260901215425 98 91 1.0 3.0 0.00 0.00 0.00 40 1010.0
20260901214525 98 114 2.0 4.0 0.00 0.00 0.00 40 1010.0
20260901213604 99 101 3.0 7.0 0.00 0.00 0.00 38 1010.1
20260901212725 101 93 3.0 10.0 0.00 0.00 0.00 37 1010.0
20260901211804 103 83 3.0 12.0 0.00 0.00 0.00 37 1010.1
20260901210904 101 131 2.0 6.0 0.00 0.00 0.00 38 1010.3
20260901210025 100 132 2.0 10.0 0.00 0.00 0.00 37 1010.4
20260901205404 102 107 2.0 7.0 0.00 0.00 0.00 36 1010.4
20260901204525 102 107 2.0 5.0 0.00 0.00 0.00 38 1010.4
20260901203604 103 105 2.0 6.0 0.00 0.00 0.00 37 1010.5
20260901202724 103 88 2.0 7.0 0.00 0.00 0.00 37 1010.6
20260901201804 102 130 2.0 7.0 0.00 0.00 0.00 37 1010.8
20260901200904 99 160 3.0 7.0 0.00 0.00 0.00 40 1010.9
20260901200004 100 150 4.0 9.0 0.00 0.00 0.00 37 1011.0
20260901195425 102 144 2.0 9.0 0.00 0.00 0.00 37 1011.1
20260901194504 101 151 2.0 4.0 0.00 0.00 0.00 39 1011.1
20260901193604 101 119 2.0 9.0 0.00 0.00 0.00 41 1011.3
20260901192704 98 160 2.0 9.0 0.00 0.00 0.00 42 1011.4
20260901191825 97 177 3.0 9.0 0.00 0.00 0.00 43 1011.5
20260901190904 98 171 3.0 8.0 0.00 0.00 0.00 43 1011.6
20260901190025 98 156 3.0 7.0 0.00 0.00 0.00 42 1011.7
20260901185404 100 127 2.0 9.0 0.00 0.00 0.00 41 1011.8
20260901184504 100 65 3.0 9.0 0.00 0.00 0.00 43 1011.9
20260901183604 98 81 2.0 5.0 0.00 0.00 0.00 43 1012.1
20260901182704 98 120 1.0 5.0 0.00 0.00 0.00 46 1012.3
20260901181803 97 138 2.0 4.0 0.00 0.00 0.00 43 1012.6
20260901180904 98 169 4.0 11.0 0.00 0.00 0.00 43 1012.8
20260901180004 99 176 3.0 11.0 0.00 0.00 0.00 41 1012.9
20260901175404 100 154 2.0 6.0 0.00 0.00 0.00 42 1012.9
20260901174525 98 128 3.0 9.0 0.00 0.00 0.00 44 1013.0
20260901173604 98 178 3.0 9.0 0.00 0.00 0.00 44 1013.1
20260901172704 98 102 2.0 5.0 0.00 0.00 0.00 46 1013.3
20260901171825 97 152 3.0 10.0 0.00 0.00 0.00 47 1013.3
20260901170904 96 74 1.0 4.0 0.00 0.00 0.00 47 1013.4
20260901170004 96 129 3.0 6.0 0.00 0.00 0.00 47 1013.5
20260901165425 96 136 3.0 7.0 0.00 0.00 0.00 47 1013.6
20260901164504 96 143 2.0 5.0 0.00 0.00 0.00 49 1013.7
20260901163625 94 190 3.0 8.0 0.00 0.00 0.00 51 1013.8
20260901162704 93 176 4.0 9.0 0.00 0.00 0.00 51 1013.9
20260901161804 92 199 4.0 9.0 0.00 0.00 0.00 53 1013.9
20260901160903 92 198 2.0 7.0 0.00 0.00 0.00 55 1013.9
20260901160004 91 160 3.0 10.0 0.00 0.00 0.00 56 1013.9